This is the latest recevied weather packets stored in our database for station/object AF9W-5. If no packets are shown the sender has not sent any weather packets the latest 1 day(s).
| Time | Temp. | Humidity | Pressure | Rain* | Wind** | Luminosity | Snow |
|---|---|---|---|---|---|---|---|
| 1778050152 | 14.44° C | 51% | 1013.9 hPa | 0 mm | - | 0 W/m² | - |
| 1778049848 | 14.44° C | 51% | 1014.1 hPa | 0 mm | - | 0 W/m² | - |
| 1778049545 | 14.44° C | 51% | 1014.1 hPa | 0 mm | - | 0 W/m² | - |
| 1778048638 | 14.44° C | 51% | 1014.1 hPa | 0 mm | - | 0 W/m² | - |
| 1778048334 | 13.89° C | 52% | 1013.7 hPa | 0 mm | - | 0 W/m² | - |
| 1778048031 | 13.89° C | 53% | 1014.1 hPa | 0 mm | - | 0 W/m² | - |
| 1778047729 | 13.89° C | 54% | 1014 hPa | 0 mm | - | 0 W/m² | - |
| 1778047123 | 14.44° C | 50% | 1013.7 hPa | 0 mm | - | 0 W/m² | - |
| 1778046820 | 15° C | 51% | 1013.6 hPa | 0 mm | - | 0 W/m² | - |
| 1778046214 | 15° C | 51% | 1013.9 hPa | 0 mm | - | 0 W/m² | - |
| 1778045910 | 15° C | 53% | 1013.9 hPa | 0 mm | - | 0 W/m² | - |
| 1778045307 | 15° C | 54% | 1013.3 hPa | 0 mm | - | 0 W/m² | - |
| 1778044096 | 15.56° C | 47% | 1013.6 hPa | 0 mm | - | 0 W/m² | - |
| 1778043794 | 15.56° C | 47% | 1013.6 hPa | 0 mm | - | 0 W/m² | - |
| 1778043490 | 15.56° C | 46% | 1013.2 hPa | 0 mm | - | 0 W/m² | - |
| 1778042884 | 15.56° C | 47% | 1013.3 hPa | 0 mm | - | 0 W/m² | - |
| 1778042279 | 15.56° C | 47% | 1013.2 hPa | 0 mm | - | 0 W/m² | - |
| 1778041674 | 16.11° C | 45% | 1013.2 hPa | 0 mm | - | 0 W/m² | - |
| 1778041373 | 16.11° C | 45% | 1013 hPa | 0 mm | - | 0 W/m² | - |
| 1778041071 | 16.11° C | 45% | 1012.9 hPa | 0 mm | - | 0 W/m² | - |
| 1778040465 | 15.56° C | 48% | 1013 hPa | 0 mm | - | 0 W/m² | - |
| 1778040162 | 15.56° C | 48% | 1012.9 hPa | 0 mm | - | 0 W/m² | - |
| 1778039556 | 16.11° C | 49% | 1012.3 hPa | 0 mm | - | 0 W/m² | - |
| 1778039252 | 16.11° C | 47% | 1012.4 hPa | 0 mm | - | 0 W/m² | - |
| 1778038950 | 16.67° C | 45% | 1012.3 hPa | 0 mm | - | 0 W/m² | - |
* Rain latest hour (hover to see other rain measurements)
** Current wind speed in m/s (hover to see current wind gust speed)